Location: Cieszkowy
(50.3290°N, 20.5336°E)
Time: 23:00:02
(UTC+00:00)

Cosmos 2218 Rocket - Pass Details

Date: 15 June 2024
Orbit: 955 x 1006 km, 82.9° (Epoch: 18 July)

Event Time Altitude Azimuth Distance (km) Brightness Sun altitude
Exits shadow 01:04:26 12° 213° (SSW) 2,584 5.5 -9.6°
Maximum altitude 01:10:04 49° 286° (WNW) 1,231 4.4 -9.1°
Drops below altitude 10° 01:16:04 10° 1° (N) 2,710 7.3 -8.5°
Sets 01:18:40 0° 7° (N) 3,655 8.2 -8.3°
